Location: *
(49.0578°S, 177.6550°W)
Time: 07:12:08
(UTC+00:00)

Daily predictions for brighter satellites

Satellite Brightness Start Highest point End
(mag) Time Altitude Azimuth Time Altitude Azimuth Time Altitude Azimuth
ATLAS 2AS CENTAUR R/B 4.0 15:21:45 28° SSE 15:21:45 28° SSE 15:25:05 10° SE
CZ-4C R/B 4.2 15:24:36 23° S 15:24:36 23° S 15:27:45 10° SE
SL-16 R/B 3.5 15:33:54 36° SE 15:34:01 36° SE 15:39:17 10° ENE
NOSS 3-1 (C) 4.2 15:36:08 47° SE 15:36:08 47° SE 15:41:18 10° ENE
ATLAS 5 CENTAUR R/B 4.1 15:45:53 21° S 15:45:53 21° S 15:49:48 10° SE
SL-16 R/B 4.3 15:43:21 10° S 15:45:11 19° S 15:45:11 19° S
ADEOS Rocket 4.2 15:44:06 10° SSE 15:46:56 31° S 15:46:56 31° S
Cosmos 2237 Rocket 4.0 16:09:36 19° N 16:09:36 19° N 16:11:12 10° NNE
USA 281 3.4 16:01:16 10° SSE 16:06:47 56° SSW 16:06:47 56° SSW
Cosmos 407 Rocket 4.0 16:09:44 52° NE 16:10:25 56° ENE 16:15:35 10° SSE
Lacrosse 5 rocket 3.8 16:14:39 14° NE 16:14:39 14° NE 16:15:15 10° NE
Cosmos 1455 4.3 16:16:30 23° SE 16:16:30 23° SE 16:18:15 10° SSE
Cosmos 2098 Rocket 4.1 16:18:29 41° E 16:18:29 41° E 16:22:17 10° NNE
USA 305 4.1 16:20:19 39° SE 16:20:19 39° SE 16:23:10 10° ESE
Cosmos 2227 Rocket 2.3 16:18:45 55° N 16:19:54 71° ENE 16:25:39 10° SSE
Cosmos 2058 Rocket 4.1 16:17:12 18° NNE 16:20:20 47° E 16:24:41 10° SSE
Cosmos 1825 4.3 16:22:36 22° NE 16:22:36 22° NE 16:24:06 10° NNE
Cosmos 2297 Rocket 2.1 16:22:36 86° NW 16:22:43 89° WSW 16:28:29 10° SSE
Cosmos 405 Rocket 3.9 16:23:12 44° E 16:23:12 44° E 16:26:53 10° NNE
Nadezhda 4 Rocket 4.0 16:16:53 10° S 16:23:17 83° E 16:29:39 10° N
Cosmos 1072 Rocket 4.4 16:26:18 47° NNW 16:28:17 75° W 16:34:46 10° S
SL-08 R/B 3.7 16:23:20 10° SSE 16:27:23 58° S 16:27:23 58° S
SMAP 4.4 16:25:47 10° NE 16:30:09 39° ESE 16:34:34 10° S
USA 267 3.7 16:24:01 10° E 16:30:21 53° SSE 16:32:38 37° SW
Envisat 3.0 16:27:57 10° N 16:32:25 66° NNW 16:32:25 66° NNW
Cosmos 2082 4.5 16:29:44 10° N 16:35:17 52° ENE 16:40:52 10° SE
SL-4 R/B 2.4 16:37:47 62° ESE 16:37:47 62° ESE 16:41:12 10° ENE
USA 306 3.4 16:39:02 52° SSE 16:39:02 52° SSE 16:42:41 10° ESE
Cosmos 1891 Rocket 4.4 16:41:12 52° WNW 16:42:17 59° WSW 16:48:34 10° S
COSMOS 2455 2.8 16:44:38 36° NW 16:47:17 88° SW 16:53:24 10° SE
SL-24 R/B 4.4 16:43:25 10° SSE 16:48:02 63° E 16:52:02 10° N
Cosmos 1023 Rocket 4.4 16:47:18 43° NW 16:49:04 79° WSW 16:54:24 10° SSE
FALCON 9 DEB 4.0 16:51:44 44° ENE 16:51:44 44° ENE 16:54:03 10° ENE
USA 229 DEB 3.6 16:51:13 28° SW 16:55:07 82° SE 17:01:36 10° NE
USA 229 3.6 16:51:18 28° SW 16:55:12 81° SE 17:01:41 10° NE
Timation 1 Rocket 4.4 16:49:50 10° NNW 16:55:52 80° ENE 17:01:58 10° SSE
USA 307 3.2 17:05:23 48° SW 17:05:53 50° SSW 17:10:09 10° ESE
Cosmos 2219 3.4 17:04:44 39° WNW 17:06:29 52° SW 17:12:08 10° SSE
Cosmos 1140 Rocket 3.5 17:04:16 33° NW 17:06:33 61° WSW 17:11:48 10° SSE
CORIOLIS 4.4 17:01:17 10° NNE 17:06:40 73° ESE 17:12:08 10° SSW
H-2A R/B 4.1 17:02:37 10° ENE 17:07:11 28° ESE 17:11:43 10° S
Cosmos 44 Rocket 3.9 17:09:30 35° SW 17:09:30 35° SW 17:13:47 10° SSE
CZ-2C R/B 3.9 17:04:28 10° NE 17:09:49 53° ESE 17:14:57 10° S
ATLAS 2AS CENTAUR R/B 3.9 17:09:11 20° SW 17:11:19 24° S 17:16:36 10° SE
CZ-4C R/B 4.0 17:09:48 16° SSW 17:12:59 22° S 17:17:23 10° SE
Meteor 2-10 Rocket 3.8 17:13:45 38° W 17:14:16 39° WSW 17:19:04 10° S
Cosmos 1464 Rocket 4.4 17:10:55 21° NW 17:14:47 40° WSW 17:20:51 10° S
NOAA 12 4.0 17:09:44 10° N 17:15:06 76° WNW 17:20:33 10° SSW
NOSS 3-1 (A) 3.3 17:11:27 24° SW 17:15:34 84° NW 17:21:07 10° NE
Cosmos 2263 Rocket 3.7 17:11:19 10° N 17:16:33 38° ENE 17:21:48 10° SE
X-37B 1.6 17:16:30 35° NNW 17:17:00 38° N 17:20:02 10° ENE
GENESIS II 4.1 17:17:04 47° WSW 17:18:03 69° NW 17:21:59 10° NNE
SL-16 R/B 2.4 17:15:50 29° SW 17:18:19 47° WNW 17:23:45 10° N
USA 308 3.4 17:18:34 38° SW 17:19:39 47° S 17:23:52 10° ESE
GEOS 3 Rocket 4.5 17:17:41 10° ENE 17:22:29 44° SE 17:26:41 14° SSW
Cosmos 1943 3.8 17:18:34 10° SSW 17:24:16 58° ESE 17:29:53 10° NE
Cosmos 2034 Rocket 4.2 17:18:27 10° NW 17:24:24 46° WSW 17:30:24 10° S
NOSS 3-1 (C) 3.6 17:23:35 26° WSW 17:26:36 46° WNW 17:31:48 10° NNE
Cosmos 1812 Rocket 4.0 17:22:20 10° N 17:26:40 65° E 17:31:05 10° SSE
Cosmos 2195 Rocket 4.4 17:21:34 10° SSW 17:27:39 61° W 17:33:42 10° N
Aureole 3 3.8 17:24:16 10° N 17:27:40 59° E 17:31:55 10° SSE
Radarsat 4.5 17:23:12 10° N 17:28:27 77° WNW 17:33:46 10° SSW
Cosmos 1190 Rocket 4.3 17:25:23 16° NW 17:29:30 48° WSW 17:34:44 10° SSE
PAYLOAD B 4.2 17:24:11 10° N 17:29:49 70° WNW 17:35:31 10° SSW
CZ-4B R/B 3.2 17:24:16 10° NNE 17:29:52 87° ESE 17:35:26 10° SSW
Cosmos 1633 2.6 17:26:11 10° S 17:29:54 82° E 17:33:35 10° NNE
COSMO-SKYMED 1 4.3 17:27:29 10° SSE 17:31:35 36° E 17:35:39 10° NNE
FALCON 9 DEB 3.4 17:31:29 41° WNW 17:32:02 46° NNW 17:35:08 10° NE
ATLAS 5 CENTAUR R/B 3.6 17:27:25 12° SSW 17:32:04 29° SSE 17:36:38 10° E
CZ-4 R/B 3.5 17:30:25 10° ENE 17:33:52 27° ESE 17:37:25 10° S
H-2A R/B 3.6 17:30:28 10° SSE 17:34:29 39° E 17:38:30 10° NNE
Cosmos 2058 3.6 17:33:37 29° WSW 17:34:38 32° W 17:38:26 10° NNW
ADEOS Rocket 4.4 17:31:11 10° SSW 17:33:53 16° SW 17:33:53 16° SW
Cosmos 1634 Rocket 4.0 17:28:24 10° NNW 17:34:45 77° W 17:41:13 10° S
ERBS 2.7 17:34:13 38° WSW 17:34:53 43° SSW 17:38:10 10° SE
Timation 2 Rocket 4.4 17:31:00 16° WNW 17:36:08 47° SW 17:42:44 10° SSE
FALCON 9 DEB 3.6 17:35:50 35° WNW 17:36:30 40° NW 17:39:31 10° NE
USA 215 3.8 17:31:41 10° ESE 17:38:14 60° NE 17:44:44 10° NW
Gbstr 26 Del rocket 3.4 17:35:55 14° NW 17:38:59 53° NNE 17:43:01 10° ESE
NOAA 11 4.4 17:35:58 10° N 17:41:14 49° W 17:46:36 10° SSW
Okean O Rocket 1.5 17:39:39 10° NNE 17:44:03 82° WNW 17:48:33 10° SSW
ASTEX 1 4.1 17:42:12 10° SSW 17:46:31 30° WSW 17:50:47 10° NW
FAST 4.4 17:44:49 12° SSW 17:47:16 69° W 17:50:28 10° N
Cosmos 1455 3.9 17:51:29 17° SW 17:51:29 17° SW 17:53:14 10° SSW
Cosmos 1763 Rocket 3.6 17:46:59 10° SSW 17:52:15 56° WNW 17:57:24 10° N
Cosmos 407 Rocket 4.5 17:50:02 18° W 17:52:46 27° SW 17:57:13 10° S
FALCON 9 DEB 3.7 17:51:48 24° W 17:53:13 38° NW 17:56:15 10° NE
Cosmos 676 Rocket 4.3 17:48:03 10° NW 17:53:16 49° WSW 17:58:31 10° SSE
YAOGAN 1 4.0 17:51:06 10° NE 17:55:11 40° ESE 17:59:19 10° S
Cosmos 389 Rocket 3.6 17:54:47 21° W 17:55:26 23° WSW 17:58:17 10° SSW
Cosmos 1825 4.4 17:57:28 11° WNW 17:57:28 11° WNW 17:57:44 10° WNW
Okean-O 4.3 17:52:00 10° NE 17:56:03 34° ESE 18:00:09 10° S
Aureole 2 Rocket 2.1 17:55:50 14° NW 17:57:50 37° WSW 18:00:18 10° S
Cosmos 2058 Rocket 4.3 17:55:04 10° WNW 17:58:35 22° WSW 18:02:06 10° SSW
Cosmos 405 Rocket 4.2 17:58:25 18° W 17:58:36 18° W 18:01:23 10° NW
Cosmos 2142 Rocket 4.4 17:52:41 10° NNW 17:58:51 72° W 18:05:08 10° S
Cosmos 2098 Rocket 4.4 17:58:53 17° W 17:58:53 17° W 18:01:45 10° NW
USA 305 3.6 17:56:24 18° WSW 17:59:14 43° S 18:03:24 10° ESE
Cosmos 921 Rocket 3.6 17:55:02 10° SSW 17:59:31 62° ESE 18:04:02 10° NNE
CZ-2D R/B 3.2 17:56:37 10° N 18:00:30 76° WNW 18:04:29 10° SSW
CREW DRAGON DEMO-1 DEB 3.0 18:00:17 23° WSW 18:01:40 46° S 18:04:19 10° ESE
Landsat 5 3.7 17:59:18 10° S 18:03:43 56° WSW 18:08:10 10° NNW
Cosmos 841 Rocket 3.5 17:58:56 10° SSW 18:04:18 86° WNW 18:09:38 10° NNE
Cosmos 2227 Rocket 3.2 18:00:38 14° W 18:04:32 27° SW 18:09:21 10° SSE
Meteor 1-4 Rocket 2.6 18:03:01 10° N 18:06:36 81° ENE 18:10:12 10° SSE
SMAP 3.9 18:03:31 10° NNW 18:07:35 29° W 18:11:43 10° SW
Cosmos 2297 Rocket 3.4 18:04:27 14° W 18:07:36 22° SW 18:11:59 10° S
USA 267 3.3 18:06:34 10° NE 18:13:09 82° NNW 18:19:48 10° WSW
Meteor 2-3 Rocket 3.8 18:07:49 10° SSW 18:13:37 65° W 18:19:23 10° N
Cosmos 1939 Rocket 3.6 18:11:28 10° NNW 18:15:03 32° W 18:18:44 10° SSW
H-2A R/B 3.0 18:12:33 10° NNW 18:16:35 38° W 18:20:32 10° SSW
SL-4 R/B 2.8 18:13:21 13° W 18:16:37 36° NW 18:20:08 10° NNE
Magion-5 4.2 18:11:12 10° NW 18:17:24 65° SW 18:23:44 10° SE
USA 306 3.6 18:15:08 13° WSW 18:18:50 43° S 18:22:59 10° ESE
Cosmos 2082 4.4 18:14:25 10° WNW 18:19:38 34° SW 18:24:52 10° SSE
SKYMED 2 3.6 18:15:21 10° S 18:19:48 78° WSW 18:24:11 10° NNW
Cosmos-2242 3.1 18:17:02 10° NNW 18:21:25 62° WSW 18:25:53 10° S
Cosmos 2279 Rocket 4.1 18:16:07 10° NNW 18:22:15 55° WSW 18:28:28 10° S
CZ-4C R/B 4.0 18:23:28 10° S 18:26:36 27° WSW 18:29:38 10° NW
MOS 1 Rocket 4.1 18:21:37 10° S 18:26:37 39° WSW 18:31:39 10° NW
ARGOS 3.4 18:22:33 10° NNE 18:28:01 78° ESE 18:33:33 10° SSW
CZ-4B R/B 1.6 18:26:00 10° SSE 18:29:21 75° ENE 18:32:43 10° N
Cosmos 2208 Rocket 4.1 18:24:12 10° SSW 18:29:31 90° SE 18:34:44 10° NNE
Meteor 1-27 4.2 18:24:13 10° NNW 18:29:49 79° WSW 18:35:31 10° S
IRS-1C Rocket 4.2 18:26:09 10° NNE 18:31:29 86° WNW 18:36:53 10° SSW
Geosat 4.1 18:27:22 10° NNE 18:32:26 87° ESE 18:37:35 10° SSW
COSMOS 2455 3.9 18:29:03 10° W 18:34:04 26° SSW 18:39:07 10° SSE
Cosmos 2151 4.0 18:31:45 10° SSW 18:35:25 27° W 18:39:04 10° NNW
Cosmos 1603 4.2 18:30:15 10° SW 18:35:41 44° WNW 18:41:06 10° N
Cosmos 2082 Rocket 4.5 18:33:04 10° S 18:35:58 14° SSE 18:38:52 10° ESE
HJ-1C 3.7 18:33:16 10° NNE 18:36:35 71° ESE 18:39:56 10° S
Cosmos 540 Rocket 4.0 18:35:10 10° SW 18:40:02 40° WNW 18:44:51 10° N
CZ-2C R/B 3.3 18:35:44 10° SSE 18:41:12 63° E 18:46:27 10° N
Cosmos 2266 Rocket 4.2 18:37:20 10° SSW 18:43:35 60° W 18:49:51 10° N
